Location: Marcé
(47.5801°N, 0.3280°W)
Time: 22:32:44
(UTC+01:00)

Transit 2A - Pass Details

Date: 06 December 2021
Orbit: 591 x 967 km, 66.7° (Epoch: 23 January)

Event Time Altitude Azimuth Distance (km) Brightness Sun altitude
Rises 08:53:49 0° 325° (NW) 3,659 8.9 1.8°
Reaches altitude 10° 08:56:24 10° 327° (NNW) 2,715 8.3 2.2°
Maximum altitude 09:02:51 81° 55° (NE) 972 6.7 3.0°
Drops below altitude 10° 09:09:01 10° 143° (SE) 2,604 10.8 3.8°
Sets 09:11:27 0° 144° (SE) 3,501 11.4 4.2°
